YAOGAN-43 02A (60945 NORAD) Tracking and Keplerian Element Data

This shows tracking and keplerian element data for the satellite.

Feedback or suggestion? Click here.




ElementValue
Catalog60945
NameYAOGAN-43 02A
Epoch Orbit602
Epoch Day286.47137251
Epoch Year2024
RAAN91.5153
Inclination34.9965
Eccentricity0.0006114
Argument of Perigee9.4526
Mean Anonmoly350.6303
Mean Motion15.23794097
Decay Rate0.00045861
L11 60945U 24156A 24286.47137251 .00045861 00000+0 18484-2 0 9994
L22 60945 34.9965 91.5153 0006114 9.4526 350.6303 15.23794097 6029



Live tracking and technical data element details for YAOGAN-43 02A (NORAD 60945). YAOGAN-43 02A can be tracked NOW for your location showing map with azimuth and elevation plus other details from your city location.







IsCatalogInMostPopularTable: catalog: 60945, numindb: 7
Update: records affected: 1



GetName: 60945 YAOGAN-43 02A

Hit Count: updated at: Wed, 04 Dec 2024 19:50:31 GMT